#datetime,building,power
2023-07-25T00:00:00,mcc,41.37
2023-07-25T00:01:00,mcc,40.18
2023-07-25T00:02:00,mcc,41.73
2023-07-25T00:03:00,mcc,40.69
2023-07-25T00:04:00,mcc,41.00
2023-07-25T00:05:00,mcc,43.55
2023-07-25T00:06:00,mcc,43.97
2023-07-25T00:07:00,mcc,42.98
2023-07-25T00:08:00,mcc,41.43
2023-07-25T00:09:00,mcc,42.76
2023-07-25T00:10:00,mcc,42.63
2023-07-25T00:11:00,mcc,42.23
2023-07-25T00:12:00,mcc,43.54
2023-07-25T00:13:00,mcc,51.70
2023-07-25T00:14:00,mcc,41.71
2023-07-25T00:15:00,mcc,40.87
2023-07-25T00:16:00,mcc,40.90
2023-07-25T00:17:00,mcc,40.21
2023-07-25T00:18:00,mcc,42.13
2023-07-25T00:19:00,mcc,42.30
2023-07-25T00:20:00,mcc,43.44
2023-07-25T00:21:00,mcc,43.01
2023-07-25T00:22:00,mcc,42.23
2023-07-25T00:23:00,mcc,41.50
2023-07-25T00:24:00,mcc,40.97
2023-07-25T00:25:00,mcc,42.34
2023-07-25T00:26:00,mcc,42.16
2023-07-25T00:27:00,mcc,43.47
2023-07-25T00:28:00,mcc,40.65
2023-07-25T00:29:00,mcc,39.41
2023-07-25T00:30:00,mcc,38.32
2023-07-25T00:31:00,mcc,38.42
2023-07-25T00:32:00,mcc,44.35
2023-07-25T00:33:00,mcc,40.89
2023-07-25T00:34:00,mcc,40.88
2023-07-25T00:35:00,mcc,39.70
2023-07-25T00:36:00,mcc,39.02
2023-07-25T00:37:00,mcc,38.68
2023-07-25T00:38:00,mcc,39.61
2023-07-25T00:39:00,mcc,42.80
2023-07-25T00:40:00,mcc,41.89
2023-07-25T00:41:00,mcc,43.03
2023-07-25T00:42:00,mcc,41.73
2023-07-25T00:43:00,mcc,41.75
2023-07-25T00:44:00,mcc,41.67
2023-07-25T00:45:00,mcc,41.23
2023-07-25T00:46:00,mcc,43.31
2023-07-25T00:47:00,mcc,40.60
2023-07-25T00:48:00,mcc,40.47
2023-07-25T00:49:00,mcc,40.43
2023-07-25T00:50:00,mcc,40.61
2023-07-25T00:51:00,mcc,46.48
2023-07-25T00:52:00,mcc,38.44
2023-07-25T00:53:00,mcc,39.26
2023-07-25T00:54:00,mcc,41.00
2023-07-25T00:55:00,mcc,39.83
2023-07-25T00:56:00,mcc,40.48
2023-07-25T00:57:00,mcc,39.16
2023-07-25T00:58:00,mcc,38.44
2023-07-25T00:59:00,mcc,37.97
2023-07-25T01:00:00,mcc,37.74
2023-07-25T01:01:00,mcc,39.66
2023-07-25T01:02:00,mcc,38.30
2023-07-25T01:03:00,mcc,40.81
2023-07-25T01:04:00,mcc,40.84
2023-07-25T01:05:00,mcc,40.00
2023-07-25T01:06:00,mcc,39.95
2023-07-25T01:07:00,mcc,42.70
2023-07-25T01:08:00,mcc,42.60
2023-07-25T01:09:00,mcc,39.93
2023-07-25T01:10:00,mcc,40.37
2023-07-25T01:11:00,mcc,42.45
2023-07-25T01:12:00,mcc,42.52
2023-07-25T01:13:00,mcc,45.34
2023-07-25T01:14:00,mcc,44.44
2023-07-25T01:15:00,mcc,43.42
2023-07-25T01:16:00,mcc,41.74
2023-07-25T01:17:00,mcc,41.24
2023-07-25T01:18:00,mcc,40.58
2023-07-25T01:19:00,mcc,39.67
2023-07-25T01:20:00,mcc,40.65
2023-07-25T01:21:00,mcc,39.63
2023-07-25T01:22:00,mcc,40.46
2023-07-25T01:23:00,mcc,39.31
2023-07-25T01:24:00,mcc,39.37
2023-07-25T01:25:00,mcc,38.77
2023-07-25T01:26:00,mcc,39.83
2023-07-25T01:27:00,mcc,41.87
2023-07-25T01:28:00,mcc,43.07
2023-07-25T01:29:00,mcc,41.51
2023-07-25T01:30:00,mcc,41.25
2023-07-25T01:31:00,mcc,41.84
2023-07-25T01:32:00,mcc,42.11
2023-07-25T01:33:00,mcc,42.29
2023-07-25T01:34:00,mcc,41.41
2023-07-25T01:35:00,mcc,40.77
2023-07-25T01:36:00,mcc,41.59
2023-07-25T01:37:00,mcc,38.16
2023-07-25T01:38:00,mcc,38.25
2023-07-25T01:39:00,mcc,37.23
2023-07-25T01:40:00,mcc,38.16
2023-07-25T01:41:00,mcc,40.22
2023-07-25T01:42:00,mcc,40.92
2023-07-25T01:43:00,mcc,41.95
2023-07-25T01:44:00,mcc,42.77
2023-07-25T01:45:00,mcc,42.22
2023-07-25T01:46:00,mcc,42.49
2023-07-25T01:47:00,mcc,42.31
2023-07-25T01:48:00,mcc,42.23
2023-07-25T01:49:00,mcc,42.36
2023-07-25T01:50:00,mcc,47.71
2023-07-25T01:51:00,mcc,40.50
2023-07-25T01:52:00,mcc,39.19
2023-07-25T01:53:00,mcc,38.69
2023-07-25T01:54:00,mcc,39.21
2023-07-25T01:55:00,mcc,38.83
2023-07-25T01:56:00,mcc,38.94
2023-07-25T01:57:00,mcc,39.78
2023-07-25T01:58:00,mcc,40.12
2023-07-25T01:59:00,mcc,41.37
2023-07-25T02:00:00,mcc,41.03
2023-07-25T02:01:00,mcc,42.60
2023-07-25T02:02:00,mcc,41.72
2023-07-25T02:03:00,mcc,41.99
2023-07-25T02:04:00,mcc,41.41
2023-07-25T02:05:00,mcc,39.05
2023-07-25T02:06:00,mcc,38.68
2023-07-25T02:07:00,mcc,38.75
2023-07-25T02:08:00,mcc,37.08
2023-07-25T02:09:00,mcc,37.30
2023-07-25T02:10:00,mcc,36.55
2023-07-25T02:11:00,mcc,37.47
2023-07-25T02:12:00,mcc,37.32
2023-07-25T02:13:00,mcc,39.00
2023-07-25T02:14:00,mcc,38.46
2023-07-25T02:15:00,mcc,38.52
2023-07-25T02:16:00,mcc,40.03
2023-07-25T02:17:00,mcc,39.22
2023-07-25T02:18:00,mcc,40.46
2023-07-25T02:19:00,mcc,39.09
2023-07-25T02:20:00,mcc,39.70
2023-07-25T02:21:00,mcc,41.12
2023-07-25T02:22:00,mcc,41.97
2023-07-25T02:23:00,mcc,43.10
2023-07-25T02:24:00,mcc,41.75
2023-07-25T02:25:00,mcc,40.71
2023-07-25T02:26:00,mcc,39.75
2023-07-25T02:27:00,mcc,39.78
2023-07-25T02:28:00,mcc,48.05
2023-07-25T02:29:00,mcc,39.30
2023-07-25T02:30:00,mcc,39.09
2023-07-25T02:31:00,mcc,37.03
2023-07-25T02:32:00,mcc,40.54
2023-07-25T02:33:00,mcc,40.66
2023-07-25T02:34:00,mcc,40.26
2023-07-25T02:35:00,mcc,40.26
2023-07-25T02:36:00,mcc,39.61
2023-07-25T02:37:00,mcc,39.87
2023-07-25T02:38:00,mcc,40.48
2023-07-25T02:39:00,mcc,42.14
2023-07-25T02:40:00,mcc,38.98
2023-07-25T02:41:00,mcc,40.05
2023-07-25T02:42:00,mcc,40.16
2023-07-25T02:43:00,mcc,39.86
2023-07-25T02:44:00,mcc,41.28
2023-07-25T02:45:00,mcc,40.99
2023-07-25T02:46:00,mcc,37.67
2023-07-25T02:47:00,mcc,43.67
2023-07-25T02:48:00,mcc,35.70
2023-07-25T02:49:00,mcc,38.63
2023-07-25T02:50:00,mcc,40.11
2023-07-25T02:51:00,mcc,41.21
2023-07-25T02:52:00,mcc,40.73
2023-07-25T02:53:00,mcc,42.89
2023-07-25T02:54:00,mcc,43.24
2023-07-25T02:55:00,mcc,43.29
2023-07-25T02:56:00,mcc,40.48
2023-07-25T02:57:00,mcc,40.08
2023-07-25T02:58:00,mcc,40.24
2023-07-25T02:59:00,mcc,41.15
2023-07-25T03:00:00,mcc,40.86
2023-07-25T03:01:00,mcc,38.47
2023-07-25T03:02:00,mcc,37.98
2023-07-25T03:03:00,mcc,38.22
2023-07-25T03:04:00,mcc,37.96
2023-07-25T03:05:00,mcc,38.09
2023-07-25T03:06:00,mcc,48.31
2023-07-25T03:07:00,mcc,39.43
2023-07-25T03:08:00,mcc,38.75
2023-07-25T03:09:00,mcc,39.29
2023-07-25T03:10:00,mcc,41.14
2023-07-25T03:11:00,mcc,39.85
2023-07-25T03:12:00,mcc,39.73
2023-07-25T03:13:00,mcc,39.36
2023-07-25T03:14:00,mcc,42.26
2023-07-25T03:15:00,mcc,41.75
2023-07-25T03:16:00,mcc,40.13
2023-07-25T03:17:00,mcc,40.09
2023-07-25T03:18:00,mcc,40.51
2023-07-25T03:19:00,mcc,40.45
2023-07-25T03:20:00,mcc,50.81
2023-07-25T03:21:00,mcc,49.22
2023-07-25T03:22:00,mcc,50.60
2023-07-25T03:23:00,mcc,51.98
2023-07-25T03:24:00,mcc,42.62
2023-07-25T03:25:00,mcc,41.31
2023-07-25T03:26:00,mcc,41.12
2023-07-25T03:27:00,mcc,42.72
2023-07-25T03:28:00,mcc,42.88
2023-07-25T03:29:00,mcc,43.99
2023-07-25T03:30:00,mcc,44.60
2023-07-25T03:31:00,mcc,44.39
2023-07-25T03:32:00,mcc,44.27
2023-07-25T03:33:00,mcc,42.19
2023-07-25T03:34:00,mcc,42.28
2023-07-25T03:35:00,mcc,40.87
2023-07-25T03:36:00,mcc,40.08
2023-07-25T03:37:00,mcc,41.33
2023-07-25T03:38:00,mcc,40.54
2023-07-25T03:39:00,mcc,41.02
2023-07-25T03:40:00,mcc,42.27
2023-07-25T03:41:00,mcc,41.78
2023-07-25T03:42:00,mcc,43.45
2023-07-25T03:43:00,mcc,44.03
2023-07-25T03:44:00,mcc,52.07
2023-07-25T03:45:00,mcc,43.22
2023-07-25T03:46:00,mcc,39.65
2023-07-25T03:47:00,mcc,40.93
2023-07-25T03:48:00,mcc,39.60
2023-07-25T03:49:00,mcc,39.24
2023-07-25T03:50:00,mcc,38.61
2023-07-25T03:51:00,mcc,38.72
2023-07-25T03:52:00,mcc,41.15
2023-07-25T03:53:00,mcc,39.02
2023-07-25T03:54:00,mcc,38.42
2023-07-25T03:55:00,mcc,39.60
2023-07-25T03:56:00,mcc,39.41
2023-07-25T03:57:00,mcc,39.28
2023-07-25T03:58:00,mcc,39.97
2023-07-25T03:59:00,mcc,39.71
2023-07-25T04:00:00,mcc,41.29
2023-07-25T04:01:00,mcc,41.30
2023-07-25T04:02:00,mcc,43.00
2023-07-25T04:03:00,mcc,51.28
2023-07-25T04:04:00,mcc,43.86
2023-07-25T04:05:00,mcc,43.48
2023-07-25T04:06:00,mcc,42.50
2023-07-25T04:07:00,mcc,41.26
2023-07-25T04:08:00,mcc,41.16
2023-07-25T04:09:00,mcc,38.95
2023-07-25T04:10:00,mcc,39.39
2023-07-25T04:11:00,mcc,39.09
2023-07-25T04:12:00,mcc,39.92
2023-07-25T04:13:00,mcc,40.36
2023-07-25T04:14:00,mcc,40.57
2023-07-25T04:15:00,mcc,42.00
2023-07-25T04:16:00,mcc,42.14
2023-07-25T04:17:00,mcc,42.01
2023-07-25T04:18:00,mcc,41.14
2023-07-25T04:19:00,mcc,41.65
2023-07-25T04:20:00,mcc,41.51
2023-07-25T04:21:00,mcc,43.33
2023-07-25T04:22:00,mcc,43.29
2023-07-25T04:23:00,mcc,51.20
2023-07-25T04:24:00,mcc,42.55
2023-07-25T04:25:00,mcc,41.29
2023-07-25T04:26:00,mcc,40.19
2023-07-25T04:27:00,mcc,39.86
2023-07-25T04:28:00,mcc,39.89
2023-07-25T04:29:00,mcc,41.11
2023-07-25T04:30:00,mcc,40.18
2023-07-25T04:31:00,mcc,39.76
2023-07-25T04:32:00,mcc,40.61
2023-07-25T04:33:00,mcc,42.48
2023-07-25T04:34:00,mcc,44.55
2023-07-25T04:35:00,mcc,45.23
2023-07-25T04:36:00,mcc,42.55
2023-07-25T04:37:00,mcc,41.75
2023-07-25T04:38:00,mcc,41.44
2023-07-25T04:39:00,mcc,41.70
2023-07-25T04:40:00,mcc,40.84
2023-07-25T04:41:00,mcc,41.05
2023-07-25T04:42:00,mcc,39.88
2023-07-25T04:43:00,mcc,38.69
2023-07-25T04:44:00,mcc,39.71
2023-07-25T04:45:00,mcc,39.51
2023-07-25T04:46:00,mcc,40.10
2023-07-25T04:47:00,mcc,39.20
2023-07-25T04:48:00,mcc,37.62
2023-07-25T04:49:00,mcc,37.47
2023-07-25T04:50:00,mcc,38.03
2023-07-25T04:51:00,mcc,41.06
2023-07-25T04:52:00,mcc,40.45
2023-07-25T04:53:00,mcc,41.98
2023-07-25T04:54:00,mcc,42.96
2023-07-25T04:55:00,mcc,43.29
2023-07-25T04:56:00,mcc,42.28
2023-07-25T04:57:00,mcc,40.78
2023-07-25T04:58:00,mcc,41.95
2023-07-25T04:59:00,mcc,41.12
2023-07-25T05:00:00,mcc,41.97
2023-07-25T05:01:00,mcc,50.40
2023-07-25T05:02:00,mcc,40.84
2023-07-25T05:03:00,mcc,42.06
2023-07-25T05:04:00,mcc,41.42
2023-07-25T05:05:00,mcc,40.88
2023-07-25T05:06:00,mcc,39.22
2023-07-25T05:07:00,mcc,43.93
2023-07-25T05:08:00,mcc,44.35
2023-07-25T05:09:00,mcc,42.89
2023-07-25T05:10:00,mcc,42.76
2023-07-25T05:11:00,mcc,50.96
2023-07-25T05:12:00,mcc,40.85
2023-07-25T05:13:00,mcc,41.55
2023-07-25T05:14:00,mcc,42.82
2023-07-25T05:15:00,mcc,41.90
2023-07-25T05:16:00,mcc,40.04
2023-07-25T05:17:00,mcc,36.84
2023-07-25T05:18:00,mcc,37.26
2023-07-25T05:19:00,mcc,36.54
2023-07-25T05:20:00,mcc,42.02
2023-07-25T05:21:00,mcc,40.53
2023-07-25T05:22:00,mcc,40.28
2023-07-25T05:23:00,mcc,39.90
2023-07-25T05:24:00,mcc,39.61
2023-07-25T05:25:00,mcc,39.66
2023-07-25T05:26:00,mcc,39.79
2023-07-25T05:27:00,mcc,39.84
2023-07-25T05:28:00,mcc,37.62
2023-07-25T05:29:00,mcc,38.17
2023-07-25T05:30:00,mcc,35.37
2023-07-25T05:31:00,mcc,36.37
2023-07-25T05:32:00,mcc,36.20
2023-07-25T05:33:00,mcc,36.88
2023-07-25T05:34:00,mcc,36.88
2023-07-25T05:35:00,mcc,45.28
2023-07-25T05:36:00,mcc,43.85
2023-07-25T05:37:00,mcc,45.59
2023-07-25T05:38:00,mcc,53.62
2023-07-25T05:39:00,mcc,53.85
2023-07-25T05:40:00,mcc,39.79
2023-07-25T05:41:00,mcc,41.49
2023-07-25T05:42:00,mcc,41.48
2023-07-25T05:43:00,mcc,41.05
2023-07-25T05:44:00,mcc,41.81
2023-07-25T05:45:00,mcc,41.30
2023-07-25T05:46:00,mcc,43.18
2023-07-25T05:47:00,mcc,42.74
2023-07-25T05:48:00,mcc,41.85
2023-07-25T05:49:00,mcc,42.68
2023-07-25T05:50:00,mcc,40.74
2023-07-25T05:51:00,mcc,40.69
2023-07-25T05:52:00,mcc,41.17
2023-07-25T05:53:00,mcc,42.71
2023-07-25T05:54:00,mcc,41.61
2023-07-25T05:55:00,mcc,40.89
2023-07-25T05:56:00,mcc,40.86
2023-07-25T05:57:00,mcc,48.84
2023-07-25T05:58:00,mcc,41.33
2023-07-25T05:59:00,mcc,42.82
2023-07-25T06:00:00,mcc,43.73
2023-07-25T06:01:00,mcc,43.80
2023-07-25T06:02:00,mcc,43.50
2023-07-25T06:03:00,mcc,43.36
2023-07-25T06:04:00,mcc,45.33
2023-07-25T06:05:00,mcc,46.88
2023-07-25T06:06:00,mcc,46.19
2023-07-25T06:07:00,mcc,48.20
2023-07-25T06:08:00,mcc,53.57
2023-07-25T06:09:00,mcc,56.29
2023-07-25T06:10:00,mcc,59.34
2023-07-25T06:11:00,mcc,57.81
2023-07-25T06:12:00,mcc,58.61
2023-07-25T06:13:00,mcc,60.08
2023-07-25T06:14:00,mcc,62.24
2023-07-25T06:15:00,mcc,62.17
2023-07-25T06:16:00,mcc,68.97
2023-07-25T06:17:00,mcc,60.22
2023-07-25T06:18:00,mcc,60.68
2023-07-25T06:19:00,mcc,60.23
2023-07-25T06:20:00,mcc,62.63
2023-07-25T06:21:00,mcc,63.58
2023-07-25T06:22:00,mcc,54.51
2023-07-25T06:23:00,mcc,54.30
2023-07-25T06:24:00,mcc,62.56
2023-07-25T06:25:00,mcc,52.16
2023-07-25T06:26:00,mcc,49.40
2023-07-25T06:27:00,mcc,67.18
2023-07-25T06:28:00,mcc,49.52
2023-07-25T06:29:00,mcc,61.56
2023-07-25T06:30:00,mcc,54.45
2023-07-25T06:31:00,mcc,53.60
2023-07-25T06:32:00,mcc,53.33
2023-07-25T06:33:00,mcc,57.78
2023-07-25T06:34:00,mcc,57.98
2023-07-25T06:35:00,mcc,49.99
2023-07-25T06:36:00,mcc,50.77
2023-07-25T06:37:00,mcc,71.54
2023-07-25T06:38:00,mcc,58.13
2023-07-25T06:39:00,mcc,58.31
2023-07-25T06:40:00,mcc,60.28
2023-07-25T06:41:00,mcc,59.72
2023-07-25T06:42:00,mcc,60.14
2023-07-25T06:43:00,mcc,66.92
2023-07-25T06:44:00,mcc,64.50
2023-07-25T06:45:00,mcc,64.78
2023-07-25T06:46:00,mcc,56.09
2023-07-25T06:47:00,mcc,57.20
2023-07-25T06:48:00,mcc,57.08
2023-07-25T06:49:00,mcc,57.81
2023-07-25T06:50:00,mcc,57.00
2023-07-25T06:51:00,mcc,57.03
2023-07-25T06:52:00,mcc,57.07
2023-07-25T06:53:00,mcc,52.66
2023-07-25T06:54:00,mcc,51.82
2023-07-25T06:55:00,mcc,58.42
2023-07-25T06:56:00,mcc,51.11
2023-07-25T06:57:00,mcc,48.61
2023-07-25T06:58:00,mcc,48.20
2023-07-25T06:59:00,mcc,47.37
2023-07-25T07:00:00,mcc,48.80
2023-07-25T07:01:00,mcc,54.40
2023-07-25T07:02:00,mcc,61.71
2023-07-25T07:03:00,mcc,54.09
2023-07-25T07:04:00,mcc,53.61
2023-07-25T07:05:00,mcc,55.20
2023-07-25T07:06:00,mcc,55.54
2023-07-25T07:07:00,mcc,55.13
2023-07-25T07:08:00,mcc,63.87
2023-07-25T07:09:00,mcc,53.68
2023-07-25T07:10:00,mcc,52.58
2023-07-25T07:11:00,mcc,52.64
2023-07-25T07:12:00,mcc,59.59
2023-07-25T07:13:00,mcc,62.62
2023-07-25T07:14:00,mcc,62.79
2023-07-25T07:15:00,mcc,55.62
2023-07-25T07:16:00,mcc,55.18
2023-07-25T07:17:00,mcc,55.90
2023-07-25T07:18:00,mcc,56.76
2023-07-25T07:19:00,mcc,63.92
2023-07-25T07:20:00,mcc,57.17
2023-07-25T07:21:00,mcc,54.50
2023-07-25T07:22:00,mcc,53.54
2023-07-25T07:23:00,mcc,53.71
2023-07-25T07:24:00,mcc,61.58
2023-07-25T07:25:00,mcc,53.31
2023-07-25T07:26:00,mcc,54.30
2023-07-25T07:27:00,mcc,56.26
2023-07-25T07:28:00,mcc,71.53
2023-07-25T07:29:00,mcc,56.66
2023-07-25T07:30:00,mcc,62.34
2023-07-25T07:31:00,mcc,54.79
2023-07-25T07:32:00,mcc,54.75
2023-07-25T07:33:00,mcc,56.20
2023-07-25T07:34:00,mcc,54.64
2023-07-25T07:35:00,mcc,64.16
2023-07-25T07:36:00,mcc,54.94
2023-07-25T07:37:00,mcc,52.33
2023-07-25T07:38:00,mcc,52.28
2023-07-25T07:39:00,mcc,53.38
2023-07-25T07:40:00,mcc,52.26
2023-07-25T07:41:00,mcc,60.09
2023-07-25T07:42:00,mcc,54.08
2023-07-25T07:43:00,mcc,56.12
2023-07-25T07:44:00,mcc,56.15
2023-07-25T07:45:00,mcc,58.84
2023-07-25T07:46:00,mcc,57.22
2023-07-25T07:47:00,mcc,65.43
2023-07-25T07:48:00,mcc,59.27
2023-07-25T07:49:00,mcc,66.46
2023-07-25T07:50:00,mcc,59.55
2023-07-25T07:51:00,mcc,61.10
2023-07-25T07:52:00,mcc,58.67
2023-07-25T07:53:00,mcc,68.86
2023-07-25T07:54:00,mcc,59.44
2023-07-25T07:55:00,mcc,58.86
2023-07-25T07:56:00,mcc,57.99
2023-07-25T07:57:00,mcc,56.56
2023-07-25T07:58:00,mcc,56.77
2023-07-25T07:59:00,mcc,65.24
2023-07-25T08:00:00,mcc,56.37
2023-07-25T08:01:00,mcc,56.42
2023-07-25T08:02:00,mcc,57.54
2023-07-25T08:03:00,mcc,55.69
2023-07-25T08:04:00,mcc,68.55
2023-07-25T08:05:00,mcc,61.66
2023-07-25T08:06:00,mcc,53.26
2023-07-25T08:07:00,mcc,53.61
2023-07-25T08:08:00,mcc,61.89
2023-07-25T08:09:00,mcc,54.27
2023-07-25T08:10:00,mcc,56.54
2023-07-25T08:11:00,mcc,64.18
2023-07-25T08:12:00,mcc,55.79
2023-07-25T08:13:00,mcc,56.14
2023-07-25T08:14:00,mcc,58.69
2023-07-25T08:15:00,mcc,58.25
2023-07-25T08:16:00,mcc,60.77
2023-07-25T08:17:00,mcc,68.87
2023-07-25T08:18:00,mcc,60.67
2023-07-25T08:19:00,mcc,60.54
2023-07-25T08:20:00,mcc,60.05
2023-07-25T08:21:00,mcc,58.72
2023-07-25T08:22:00,mcc,57.62
2023-07-25T08:23:00,mcc,66.20
2023-07-25T08:24:00,mcc,57.43
2023-07-25T08:25:00,mcc,57.66
2023-07-25T08:26:00,mcc,58.76
2023-07-25T08:27:00,mcc,65.59
2023-07-25T08:28:00,mcc,58.23
2023-07-25T08:29:00,mcc,66.25
2023-07-25T08:30:00,mcc,57.62
2023-07-25T08:31:00,mcc,58.58
2023-07-25T08:32:00,mcc,57.73
2023-07-25T08:33:00,mcc,57.65
2023-07-25T08:34:00,mcc,57.57
2023-07-25T08:35:00,mcc,67.90
2023-07-25T08:36:00,mcc,58.35
2023-07-25T08:37:00,mcc,58.52
2023-07-25T08:38:00,mcc,58.45
2023-07-25T08:39:00,mcc,59.83
2023-07-25T08:40:00,mcc,60.68
2023-07-25T08:41:00,mcc,70.79
2023-07-25T08:42:00,mcc,59.64
2023-07-25T08:43:00,mcc,60.23
2023-07-25T08:44:00,mcc,60.77
2023-07-25T08:45:00,mcc,72.26
2023-07-25T08:46:00,mcc,80.40
2023-07-25T08:47:00,mcc,78.56
2023-07-25T08:48:00,mcc,61.09
2023-07-25T08:49:00,mcc,61.30
2023-07-25T08:50:00,mcc,62.07
2023-07-25T08:51:00,mcc,61.17
2023-07-25T08:52:00,mcc,60.56
2023-07-25T08:53:00,mcc,66.39
2023-07-25T08:54:00,mcc,58.39
2023-07-25T08:55:00,mcc,58.62
2023-07-25T08:56:00,mcc,59.50
2023-07-25T08:57:00,mcc,60.18
2023-07-25T08:58:00,mcc,58.72
2023-07-25T08:59:00,mcc,66.47
2023-07-25T09:00:00,mcc,60.00
2023-07-25T09:01:00,mcc,59.62
2023-07-25T09:02:00,mcc,58.77
2023-07-25T09:03:00,mcc,61.39
2023-07-25T09:04:00,mcc,62.27
2023-07-25T09:05:00,mcc,77.93
2023-07-25T09:06:00,mcc,62.40
2023-07-25T09:07:00,mcc,60.43
2023-07-25T09:08:00,mcc,61.53
2023-07-25T09:09:00,mcc,74.62
2023-07-25T09:10:00,mcc,59.69
2023-07-25T09:11:00,mcc,69.68
2023-07-25T09:12:00,mcc,61.31
2023-07-25T09:13:00,mcc,61.33
2023-07-25T09:14:00,mcc,59.85
2023-07-25T09:15:00,mcc,58.69
2023-07-25T09:16:00,mcc,58.49
2023-07-25T09:17:00,mcc,67.18
2023-07-25T09:18:00,mcc,59.74
2023-07-25T09:19:00,mcc,59.88
2023-07-25T09:20:00,mcc,58.35
2023-07-25T09:21:00,mcc,58.29
2023-07-25T09:22:00,mcc,57.18
2023-07-25T09:23:00,mcc,65.11
2023-07-25T09:24:00,mcc,72.93
2023-07-25T09:25:00,mcc,58.39
2023-07-25T09:26:00,mcc,59.74
2023-07-25T09:27:00,mcc,60.70
2023-07-25T09:28:00,mcc,61.71
2023-07-25T09:29:00,mcc,67.22
2023-07-25T09:30:00,mcc,68.40
2023-07-25T09:31:00,mcc,59.08
2023-07-25T09:32:00,mcc,61.69
2023-07-25T09:33:00,mcc,62.68
2023-07-25T09:34:00,mcc,62.61
2023-07-25T09:35:00,mcc,70.85
2023-07-25T09:36:00,mcc,71.79
2023-07-25T09:37:00,mcc,62.07
2023-07-25T09:38:00,mcc,60.57
2023-07-25T09:39:00,mcc,60.71
2023-07-25T09:40:00,mcc,61.04
2023-07-25T09:41:00,mcc,67.33
2023-07-25T09:42:00,mcc,66.93
2023-07-25T09:43:00,mcc,65.64
2023-07-25T09:44:00,mcc,58.51
2023-07-25T09:45:00,mcc,59.01
2023-07-25T09:46:00,mcc,58.55
2023-07-25T09:47:00,mcc,65.54
2023-07-25T09:48:00,mcc,65.56
2023-07-25T09:49:00,mcc,57.62
2023-07-25T09:50:00,mcc,59.44
2023-07-25T09:51:00,mcc,59.15
2023-07-25T09:52:00,mcc,58.39
2023-07-25T09:53:00,mcc,66.20
2023-07-25T09:54:00,mcc,63.56
2023-07-25T09:55:00,mcc,57.77
2023-07-25T09:56:00,mcc,60.03
2023-07-25T09:57:00,mcc,59.24
2023-07-25T09:58:00,mcc,60.23
2023-07-25T09:59:00,mcc,68.85
2023-07-25T10:00:00,mcc,60.28
2023-07-25T10:01:00,mcc,59.32
2023-07-25T10:02:00,mcc,59.18
2023-07-25T10:03:00,mcc,60.44
2023-07-25T10:04:00,mcc,62.77
2023-07-25T10:05:00,mcc,72.59
2023-07-25T10:06:00,mcc,72.61
2023-07-25T10:07:00,mcc,60.98
2023-07-25T10:08:00,mcc,60.35
2023-07-25T10:09:00,mcc,60.22
2023-07-25T10:10:00,mcc,60.97
2023-07-25T10:11:00,mcc,66.61
2023-07-25T10:12:00,mcc,65.93
2023-07-25T10:13:00,mcc,60.41
2023-07-25T10:14:00,mcc,60.33
2023-07-25T10:15:00,mcc,60.40
2023-07-25T10:16:00,mcc,60.55
2023-07-25T10:17:00,mcc,69.64
2023-07-25T10:18:00,mcc,70.87
2023-07-25T10:19:00,mcc,62.27
2023-07-25T10:20:00,mcc,67.72
2023-07-25T10:21:00,mcc,66.10
2023-07-25T10:22:00,mcc,58.67
2023-07-25T10:23:00,mcc,66.63
2023-07-25T10:24:00,mcc,67.83
2023-07-25T10:25:00,mcc,58.83
2023-07-25T10:26:00,mcc,57.82
2023-07-25T10:27:00,mcc,58.41
2023-07-25T10:28:00,mcc,58.46
2023-07-25T10:29:00,mcc,61.82
2023-07-25T10:30:00,mcc,66.04
2023-07-25T10:31:00,mcc,57.88
2023-07-25T10:32:00,mcc,57.76
2023-07-25T10:33:00,mcc,57.61
2023-07-25T10:34:00,mcc,58.07
2023-07-25T10:35:00,mcc,56.62
2023-07-25T10:36:00,mcc,64.43
2023-07-25T10:37:00,mcc,58.25
2023-07-25T10:38:00,mcc,66.97
2023-07-25T10:39:00,mcc,59.53
2023-07-25T10:40:00,mcc,59.38
2023-07-25T10:41:00,mcc,59.17
2023-07-25T10:42:00,mcc,66.87
2023-07-25T10:43:00,mcc,67.57
2023-07-25T10:44:00,mcc,67.33
2023-07-25T10:45:00,mcc,65.57
2023-07-25T10:46:00,mcc,65.73
2023-07-25T10:47:00,mcc,57.98
2023-07-25T10:48:00,mcc,66.80
2023-07-25T10:49:00,mcc,59.10
2023-07-25T10:50:00,mcc,59.13
2023-07-25T10:51:00,mcc,57.00
2023-07-25T10:52:00,mcc,58.42
2023-07-25T10:53:00,mcc,57.80
2023-07-25T10:54:00,mcc,65.46
2023-07-25T10:55:00,mcc,57.24
2023-07-25T10:56:00,mcc,57.97
2023-07-25T10:57:00,mcc,56.84
2023-07-25T10:58:00,mcc,84.77
2023-07-25T10:59:00,mcc,59.02
2023-07-25T11:00:00,mcc,66.81
2023-07-25T11:01:00,mcc,62.79
2023-07-25T11:02:00,mcc,72.41
2023-07-25T11:03:00,mcc,73.32
2023-07-25T11:04:00,mcc,64.06
2023-07-25T11:05:00,mcc,73.14
2023-07-25T11:06:00,mcc,63.41
2023-07-25T11:07:00,mcc,72.84
2023-07-25T11:08:00,mcc,65.00
2023-07-25T11:09:00,mcc,65.07
2023-07-25T11:10:00,mcc,65.14
2023-07-25T11:11:00,mcc,64.73
2023-07-25T11:12:00,mcc,65.37
2023-07-25T11:13:00,mcc,63.50
2023-07-25T11:14:00,mcc,63.75
2023-07-25T11:15:00,mcc,85.82
2023-07-25T11:16:00,mcc,69.62
2023-07-25T11:17:00,mcc,63.04
2023-07-25T11:18:00,mcc,62.55
2023-07-25T11:19:00,mcc,69.19
2023-07-25T11:20:00,mcc,60.65
2023-07-25T11:21:00,mcc,59.16
2023-07-25T11:22:00,mcc,68.73
2023-07-25T11:23:00,mcc,71.04
2023-07-25T11:24:00,mcc,70.71
2023-07-25T11:25:00,mcc,69.45
2023-07-25T11:26:00,mcc,63.74
2023-07-25T11:27:00,mcc,64.20
2023-07-25T11:28:00,mcc,63.44
2023-07-25T11:29:00,mcc,63.91
2023-07-25T11:30:00,mcc,63.62
2023-07-25T11:31:00,mcc,63.86
2023-07-25T11:32:00,mcc,62.70
2023-07-25T11:33:00,mcc,63.46
2023-07-25T11:34:00,mcc,63.33
2023-07-25T11:35:00,mcc,63.55
2023-07-25T11:36:00,mcc,63.49
2023-07-25T11:37:00,mcc,64.59
2023-07-25T11:38:00,mcc,64.38
2023-07-25T11:39:00,mcc,64.59
2023-07-25T11:40:00,mcc,62.92
2023-07-25T11:41:00,mcc,62.43
2023-07-25T11:42:00,mcc,60.79
2023-07-25T11:43:00,mcc,60.99
2023-07-25T11:44:00,mcc,60.88
2023-07-25T11:45:00,mcc,61.43
2023-07-25T11:46:00,mcc,62.86
2023-07-25T11:47:00,mcc,62.03
2023-07-25T11:48:00,mcc,61.35
2023-07-25T11:49:00,mcc,62.13
2023-07-25T11:50:00,mcc,59.96
2023-07-25T11:51:00,mcc,62.30
2023-07-25T11:52:00,mcc,62.68
2023-07-25T11:53:00,mcc,62.76
2023-07-25T11:54:00,mcc,73.95
2023-07-25T11:55:00,mcc,65.27
2023-07-25T11:56:00,mcc,65.28
2023-07-25T11:57:00,mcc,64.88
2023-07-25T11:58:00,mcc,65.56
2023-07-25T11:59:00,mcc,65.56
2023-07-25T12:00:00,mcc,64.77
2023-07-25T12:01:00,mcc,64.68
2023-07-25T12:02:00,mcc,63.39
2023-07-25T12:03:00,mcc,63.42
2023-07-25T12:04:00,mcc,61.84
2023-07-25T12:05:00,mcc,62.42
2023-07-25T12:06:00,mcc,63.16
2023-07-25T12:07:00,mcc,63.47
2023-07-25T12:08:00,mcc,64.93
2023-07-25T12:09:00,mcc,67.09
2023-07-25T12:10:00,mcc,68.05
2023-07-25T12:11:00,mcc,66.56
2023-07-25T12:12:00,mcc,67.70
2023-07-25T12:13:00,mcc,74.41
2023-07-25T12:14:00,mcc,67.50
2023-07-25T12:15:00,mcc,66.77
2023-07-25T12:16:00,mcc,66.51
2023-07-25T12:17:00,mcc,66.86
2023-07-25T12:18:00,mcc,65.76
2023-07-25T12:19:00,mcc,65.54
2023-07-25T12:20:00,mcc,63.85
2023-07-25T12:21:00,mcc,62.48
2023-07-25T12:22:00,mcc,60.93
2023-07-25T12:23:00,mcc,63.11
2023-07-25T12:24:00,mcc,65.06
2023-07-25T12:25:00,mcc,66.33
2023-07-25T12:26:00,mcc,67.19
2023-07-25T12:27:00,mcc,66.20
2023-07-25T12:28:00,mcc,64.08
2023-07-25T12:29:00,mcc,63.48
2023-07-25T12:30:00,mcc,63.30
2023-07-25T12:31:00,mcc,74.23
2023-07-25T12:32:00,mcc,65.35
2023-07-25T12:33:00,mcc,64.02
2023-07-25T12:34:00,mcc,63.51
2023-07-25T12:35:00,mcc,63.42
2023-07-25T12:36:00,mcc,64.33
2023-07-25T12:37:00,mcc,61.71
2023-07-25T12:38:00,mcc,61.22
2023-07-25T12:39:00,mcc,61.09
2023-07-25T12:40:00,mcc,61.19
2023-07-25T12:41:00,mcc,60.72
2023-07-25T12:42:00,mcc,62.31
2023-07-25T12:43:00,mcc,66.52
2023-07-25T12:44:00,mcc,66.57
2023-07-25T12:45:00,mcc,66.57
2023-07-25T12:46:00,mcc,65.08
2023-07-25T12:47:00,mcc,64.47
2023-07-25T12:48:00,mcc,62.09
2023-07-25T12:49:00,mcc,71.63
2023-07-25T12:50:00,mcc,64.08
2023-07-25T12:51:00,mcc,64.44
2023-07-25T12:52:00,mcc,64.95
2023-07-25T12:53:00,mcc,62.39
2023-07-25T12:54:00,mcc,62.69
2023-07-25T12:55:00,mcc,63.49
2023-07-25T12:56:00,mcc,63.33
2023-07-25T12:57:00,mcc,62.74
2023-07-25T12:58:00,mcc,62.83
2023-07-25T12:59:00,mcc,62.19
2023-07-25T13:00:00,mcc,61.62
2023-07-25T13:01:00,mcc,61.26
2023-07-25T13:02:00,mcc,62.53
2023-07-25T13:03:00,mcc,63.63
2023-07-25T13:04:00,mcc,62.74
2023-07-25T13:05:00,mcc,62.51
2023-07-25T13:06:00,mcc,62.14
2023-07-25T13:07:00,mcc,70.03
2023-07-25T13:08:00,mcc,60.70
2023-07-25T13:09:00,mcc,62.20
2023-07-25T13:10:00,mcc,63.54
2023-07-25T13:11:00,mcc,62.65
2023-07-25T13:12:00,mcc,61.99
2023-07-25T13:13:00,mcc,61.86
2023-07-25T13:14:00,mcc,62.90
2023-07-25T13:15:00,mcc,63.06
2023-07-25T13:16:00,mcc,63.01
2023-07-25T13:17:00,mcc,66.31
2023-07-25T13:18:00,mcc,65.77